OBJECT H, 51831

Orbit data source: Space-Track

You're viewing an Uncataloged Satellite

Recently launched and/or uncataloged satellites may have evolving metadata. Metadata may include but not limited to: Owner, Maufacturer, Bus, Motor, and Mission.

OBJECT H, 51831 is a satellite owned by Changguang WJ (CN) in SSO that was launched on Sun, 27 Feb 2022 UTC via a CHANG ZHENG 8 launch vehicle from the Wenchang Satellite Launch Center (WSC). Unknown objects in Earth's orbit typically refer to objects detected orbiting the Earth but have not yet been identified or cataloged. These objects could be anything from previously untracked satellites, spent rocket stages, debris from satellite collisions, or even natural meteoroids temporarily captured by Earth's gravity.

Loading next visibility...
OBJECT H details
Identifier
51831, 2022-019H
Orbit
SSO
Last TLE update9 hours ago
Origin
Flag of CNChangguang WJ (CN / PRC)
ManufacturerChangguang WJ
MissionOperational Commercial Imaging
Bus & MotorJL-1, Unknown motor
Mass43 kg wet, 43 kg dry
Launch date (UTC)
2022-02-27 (3 years ago)
Launch vehicle
CHANG ZHENG 8
Launch site
Wenchang Satellite Launch Center (WSC)
Object typeUnknown
Shape & HBRBox + 2 Pan, 1.5 m
Radar Cross Section2.000 m², Medium (>0.1 m² and < 1m²)

Expand to show TLE details & history

TLE from 9 hours ago
0 OBJECT H
1 51831U 22019H   25014.91618395  .00023961  00000-0  78283-3 0  9998
2 51831  97.4143  93.7519 0010851 194.9140 165.1783 15.31683101159695
Epoch: 2025-01-14T21:59Z
Definitive object data (Epoch: 2025-01-14T21:59:18.293Z)
Latitude-0.00001°
Longitude9.30966°
Altitude481.083 km
Speed7.621 km/s
True Right ascension06h 15m 00s
True Declination0° 00' 00"
Sunlit
Object was in full shadow at TLE epoch
Visualization TLE readout
Latitude25.06659°
Longitude-166.86532°
Altitude468.15 km
Speed7.638 km/s
Apparent Right ascension18h 47m 35s
Apparent Declination-6° 07' 21"
Sunlit
Object is in daylight
Visualization observer readout
Local Sidereal Time07:09:29
Azimuth9.732° NNE
Elevation-55.849°
Doppler factor1
Orbital elements
Apogee altitude475.169 km
Perigee altitude460.313 km
Semi-major axis6,845.878 km
Eccentricity0.0010851
Inclination97.4143°
RAAN93.7519°
Arg. of periapsis194.914°
True anomaly165.21007°
Mean anomaly165.1783°
Eccentric anomaly165.19419°
Mean motion3.83177 °/min
BSTAR0.00078283
Orbital period93.95 mins
Loading maneuver chart data...
Loading historical data...
Loading historical data...
Loading historical data...
Loading historical data...
Loading historical data...
Loading historical data...
Loading historical data...

OBJECT H Visibility forecast

Observer location: undefined°, undefined

Span
Click to sort rows by Start time (UTC) header in descending order
Start Az.
Max El. time (UTC)
Max El. Az.
Max El.
End time (UTC)
End Az.
5 mins2025-01-15 17:22:06.548Z38.142° NE2025-01-15 17:25:06.548Z100.063° ESE23.855°2025-01-15 17:27:06.548Z146.266° SSE
5 mins2025-01-16 05:29:06.548Z195.111° SSW2025-01-16 05:31:06.548Z260.358° W36.252°2025-01-16 05:34:06.548Z333.896° NNW
|